DLH405 EHAM-EDDF

Flight info

Callsign DLH405
Flight time 0h 40m
Altitude 35000
Route EDUPO Z739 MISGO DCT LIPMI DCT TANJO DCT COL DCT ROLIS ROLIS5A
Aircraft A346/H-SDE2E3FGHIJ3J4J5M1RWXY/LB1D1

Departure

Time 2026-05-07 13:05
Airport Amsterdam Airport Schiphol (EHAM)

Arrival

Time 2026-05-07 13:45
Airport Frankfurt Main Airport (EDDF)
Time Latitude Longitude Altitude Speed Heading
2026-05-07 12:39 52.31235 4.75848 6 ft 0 kts 268°
2026-05-07 12:52 52.31235 4.75850 6 ft 0 kts 268°
2026-05-07 12:52 52.31235 4.75890 6 ft 0 kts 268°
2026-05-07 12:52 52.31236 4.75933 6 ft 0 kts 268°
2026-05-07 12:53 52.31237 4.75977 6 ft 0 kts 268°
2026-05-07 12:53 52.31238 4.76005 6 ft 0 kts 268°
2026-05-07 12:57 52.31238 4.76004 6 ft 0 kts 268°
2026-05-07 12:57 52.31238 4.76001 6 ft 0 kts 278°
2026-05-07 12:57 52.31240 4.75996 6 ft 1 kts 301°
2026-05-07 12:57 52.31268 4.75974 6 ft 7 kts 336°
2026-05-07 12:58 52.31285 4.75962 6 ft 3 kts 338°
2026-05-07 12:58 52.31318 4.75946 6 ft 7 kts 347°
2026-05-07 12:58 52.31371 4.75932 6 ft 10 kts 354°
2026-05-07 12:58 52.31448 4.75921 6 ft 11 kts 355°
2026-05-07 12:59 52.31515 4.75870 6 ft 10 kts 297°
2026-05-07 12:59 52.31521 4.75776 6 ft 10 kts 267°
2026-05-07 12:59 52.31519 4.75640 6 ft 14 kts 268°
2026-05-07 12:59 52.31516 4.75465 6 ft 17 kts 268°
2026-05-07 13:00 52.31507 4.75256 6 ft 16 kts 265°
2026-05-07 13:00 52.31499 4.75047 6 ft 20 kts 266°
2026-05-07 13:00 52.31490 4.74816 6 ft 19 kts 266°
2026-05-07 13:00 52.31483 4.74625 6 ft 16 kts 267°
2026-05-07 13:01 52.31479 4.74489 6 ft 5 kts 267°
2026-05-07 13:01 52.31477 4.74404 6 ft 9 kts 268°
2026-05-07 13:01 52.31445 4.74307 6 ft 6 kts 205°
2026-05-07 13:01 52.31410 4.74311 6 ft 6 kts 147°
2026-05-07 13:02 52.31393 4.74394 6 ft 10 kts 86°
2026-05-07 13:02 52.31398 4.74529 6 ft 13 kts 86°
2026-05-07 13:02 52.31417 4.74645 6 ft 10 kts 45°
2026-05-07 13:02 52.31493 4.74665 9 ft 13 kts 355°
2026-05-07 13:03 52.31596 4.74656 7 ft 15 kts
2026-05-07 13:03 52.31638 4.74663 9 ft 1 kts 28°
2026-05-07 13:03 52.31650 4.74679 9 ft 4 kts 41°
2026-05-07 13:03 52.31667 4.74726 9 ft 4 kts 86°
2026-05-07 13:04 52.31669 4.74792 8 ft 10 kts 86°
2026-05-07 13:04 52.31685 4.75293 5 ft 82 kts 88°
2026-05-07 13:04 52.31736 4.76595 6 ft 146 kts 87°
2026-05-07 13:04 52.31759 4.78008 141 ft 176 kts 88°
2026-05-07 13:05 52.31780 4.79619 770 ft 177 kts 84°
2026-05-07 13:05 52.31858 4.81665 1655 ft 180 kts 84°
2026-05-07 13:05 52.31939 4.83727 2556 ft 180 kts 85°
2026-05-07 13:05 52.32002 4.85793 3416 ft 184 kts 91°
2026-05-07 13:06 52.31753 4.87925 4051 ft 200 kts 108°
2026-05-07 13:06 52.31219 4.90114 4648 ft 218 kts 112°
2026-05-07 13:06 52.30583 4.92487 5231 ft 236 kts 114°
2026-05-07 13:06 52.29896 4.95055 5792 ft 256 kts 112°
2026-05-07 13:07 52.29280 4.97893 6507 ft 270 kts 107°
2026-05-07 13:07 52.28751 5.00868 7439 ft 275 kts 106°
2026-05-07 13:07 52.28225 5.03895 8463 ft 279 kts 106°
2026-05-07 13:07 52.27688 5.06981 9458 ft 283 kts 107°
2026-05-07 13:08 52.27142 5.10112 10371 ft 289 kts 107°
2026-05-07 13:08 52.26576 5.13346 11036 ft 304 kts 107°
2026-05-07 13:08 52.25972 5.16772 11555 ft 322 kts 107°
2026-05-07 13:08 52.25344 5.20345 12059 ft 341 kts 106°
2026-05-07 13:09 52.24549 5.24104 12539 ft 359 kts 113°
2026-05-07 13:09 52.23410 5.27852 13004 ft 377 kts 121°
2026-05-07 13:09 52.21940 5.31487 13739 ft 386 kts 125°
2026-05-07 13:09 52.20378 5.35079 14598 ft 390 kts 126°
2026-05-07 13:10 52.18790 5.38698 15439 ft 394 kts 126°
2026-05-07 13:10 52.17186 5.42357 16254 ft 398 kts 126°
2026-05-07 13:10 52.15556 5.46084 17005 ft 405 kts 126°
2026-05-07 13:10 52.13910 5.49843 17791 ft 410 kts 126°
2026-05-07 13:11 52.12345 5.53414 18488 ft 414 kts 126°
2026-05-07 13:11 52.11013 5.56456 19053 ft 418 kts 126°
2026-05-07 13:11 52.09628 5.59616 19642 ft 421 kts 126°
2026-05-07 13:11 52.07954 5.63433 20345 ft 424 kts 126°
2026-05-07 13:12 52.06166 5.67359 21060 ft 428 kts 129°
2026-05-07 13:12 52.04256 5.71098 21769 ft 431 kts 131°
2026-05-07 13:12 52.02281 5.74789 22457 ft 435 kts 132°
2026-05-07 13:12 52.00276 5.78518 23144 ft 439 kts 132°
2026-05-07 13:13 51.98263 5.82261 23778 ft 443 kts 132°
2026-05-07 13:13 51.96229 5.86050 24342 ft 447 kts 132°
2026-05-07 13:13 51.94182 5.89877 24909 ft 450 kts 132°
2026-05-07 13:13 51.92116 5.93733 25484 ft 453 kts 132°
2026-05-07 13:14 51.90060 5.97563 26039 ft 457 kts 132°
2026-05-07 13:14 51.87965 6.01457 26579 ft 460 kts 132°
2026-05-07 13:14 51.85848 6.05385 27112 ft 464 kts 132°
2026-05-07 13:14 51.83701 6.09350 27640 ft 468 kts 133°
2026-05-07 13:15 51.81546 6.13309 28177 ft 471 kts 133°
2026-05-07 13:15 51.79377 6.17281 28693 ft 475 kts 133°
2026-05-07 13:15 51.77186 6.21291 29324 ft 475 kts 133°
2026-05-07 13:15 51.75000 6.25288 30129 ft 473 kts 133°
2026-05-07 13:16 51.72828 6.29254 30822 ft 470 kts 133°
2026-05-07 13:16 51.70661 6.33198 31445 ft 469 kts 133°
2026-05-07 13:16 51.68492 6.37141 32004 ft 470 kts 133°
2026-05-07 13:16 51.66322 6.41082 32573 ft 469 kts 133°
2026-05-07 13:17 51.64154 6.45015 33160 ft 469 kts 133°
2026-05-07 13:17 51.61983 6.48951 33723 ft 469 kts 133°
2026-05-07 13:17 51.59806 6.52891 34154 ft 472 kts 133°
2026-05-07 13:17 51.57598 6.56880 34481 ft 475 kts 133°
2026-05-07 13:18 51.55419 6.60812 34835 ft 477 kts 133°
2026-05-07 13:18 51.53205 6.64797 35027 ft 479 kts 133°
2026-05-07 13:18 51.48742 6.72806 35028 ft 480 kts 133°
2026-05-07 13:19 51.44271 6.80795 35029 ft 481 kts 133°
2026-05-07 13:19 51.39671 6.88573 35008 ft 480 kts 137°
2026-05-07 13:20 51.34641 6.95656 35025 ft 481 kts 140°
2026-05-07 13:20 51.32110 6.99140 34846 ft 476 kts 140°
2026-05-07 13:20 51.29592 7.02604 34059 ft 481 kts 140°
2026-05-07 13:21 51.27066 7.06074 32961 ft 488 kts 140°
2026-05-07 13:21 51.24474 7.09633 32084 ft 491 kts 140°
2026-05-07 13:21 51.21880 7.13192 31289 ft 491 kts 140°
2026-05-07 13:21 51.19278 7.16750 30478 ft 492 kts 140°
2026-05-07 13:22 51.16671 7.20311 29559 ft 492 kts 140°
2026-05-07 13:22 51.14051 7.23849 28712 ft 491 kts 141°
2026-05-07 13:22 51.11389 7.27098 28147 ft 484 kts 145°
2026-05-07 13:22 51.08609 7.30082 27625 ft 477 kts 148°
2026-05-07 13:23 51.05797 7.32838 27068 ft 471 kts 149°
2026-05-07 13:23 51.03012 7.35548 26473 ft 467 kts 149°
2026-05-07 13:23 51.00409 7.38077 25914 ft 463 kts 149°
2026-05-07 13:23 50.98397 7.40032 25491 ft 461 kts 149°
2026-05-07 13:24 50.95673 7.42679 24927 ft 457 kts 149°
2026-05-07 13:24 50.92973 7.45302 24367 ft 453 kts 149°
2026-05-07 13:24 50.90289 7.47905 23806 ft 449 kts 150°
2026-05-07 13:24 50.87628 7.50480 23181 ft 446 kts 150°
2026-05-07 13:25 50.84988 7.53027 22550 ft 442 kts 150°
2026-05-07 13:25 50.82398 7.55520 21921 ft 439 kts 150°
2026-05-07 13:25 50.79781 7.57985 21285 ft 436 kts 152°
2026-05-07 13:25 50.77096 7.60194 20707 ft 432 kts 155°
2026-05-07 13:26 50.74358 7.62103 20150 ft 428 kts 158°
2026-05-07 13:26 50.71616 7.63928 19611 ft 424 kts 158°
2026-05-07 13:26 50.68908 7.65727 19041 ft 420 kts 158°
2026-05-07 13:26 50.66201 7.67523 18480 ft 417 kts 158°
2026-05-07 13:27 50.63534 7.69295 17877 ft 414 kts 158°
2026-05-07 13:27 50.60914 7.71151 17302 ft 410 kts 150°
2026-05-07 13:27 50.59420 7.72944 17106 ft 406 kts 135°
2026-05-07 13:27 50.57445 7.77981 16772 ft 405 kts 115°
2026-05-07 13:28 50.56272 7.81964 16523 ft 406 kts 115°
2026-05-07 13:28 50.55058 7.86001 16257 ft 407 kts 116°
2026-05-07 13:28 50.53822 7.89993 16007 ft 404 kts 116°
2026-05-07 13:28 50.52994 7.92613 15825 ft 403 kts 116°
2026-05-07 13:29 50.51731 7.96551 15578 ft 401 kts 116°
2026-05-07 13:29 50.50469 8.00460 15327 ft 400 kts 116°
2026-05-07 13:29 50.49198 8.04373 15071 ft 400 kts 117°
2026-05-07 13:29 50.47931 8.08259 14827 ft 398 kts 117°
2026-05-07 13:30 50.46665 8.12130 14591 ft 396 kts 117°
2026-05-07 13:30 50.45417 8.15936 14343 ft 396 kts 117°
2026-05-07 13:30 50.44152 8.19783 14090 ft 395 kts 117°
2026-05-07 13:30 50.42891 8.23610 13849 ft 394 kts 117°
2026-05-07 13:31 50.41632 8.27427 13582 ft 392 kts 117°
2026-05-07 13:31 50.40379 8.31221 13306 ft 390 kts 117°
2026-05-07 13:31 50.39126 8.35005 13046 ft 389 kts 117°
2026-05-07 13:31 50.37895 8.38717 12791 ft 387 kts 117°
2026-05-07 13:32 50.36653 8.42458 12520 ft 385 kts 117°
2026-05-07 13:32 50.35414 8.46185 12270 ft 384 kts 117°
2026-05-07 13:32 50.34181 8.49889 12010 ft 382 kts 117°
2026-05-07 13:32 50.32953 8.53575 11745 ft 381 kts 117°
2026-05-07 13:33 50.31724 8.57255 11484 ft 380 kts 117°
2026-05-07 13:33 50.30502 8.60908 11228 ft 379 kts 117°
2026-05-07 13:33 50.29278 8.64561 10987 ft 377 kts 117°
2026-05-07 13:33 50.28062 8.68182 10745 ft 374 kts 117°
2026-05-07 13:34 50.26859 8.71761 10430 ft 366 kts 117°
2026-05-07 13:34 50.24528 8.78678 9829 ft 350 kts 117°
2026-05-07 13:34 50.23405 8.82007 9686 ft 337 kts 117°
2026-05-07 13:35 50.22502 8.85308 9525 ft 324 kts 104°
2026-05-07 13:35 50.22234 8.88700 9385 ft 311 kts 87°
2026-05-07 13:35 50.22552 8.91972 9232 ft 298 kts 72°
2026-05-07 13:35 50.23227 8.94980 9084 ft 288 kts 67°
2026-05-07 13:36 50.23950 8.97906 8963 ft 288 kts 67°
2026-05-07 13:36 50.24664 9.00819 8822 ft 287 kts 68°
2026-05-07 13:36 50.25357 9.03745 8681 ft 287 kts 70°
2026-05-07 13:36 50.25612 9.06840 8356 ft 289 kts 96°
2026-05-07 13:37 50.24970 9.09784 7976 ft 287 kts 123°
2026-05-07 13:37 50.23556 9.11958 7561 ft 285 kts 151°
2026-05-07 13:37 50.21696 9.12882 7157 ft 281 kts 179°
2026-05-07 13:37 50.19819 9.12394 6769 ft 276 kts 206°
2026-05-07 13:38 50.18227 9.10770 6401 ft 273 kts 221°
2026-05-07 13:38 50.16859 9.08732 6038 ft 268 kts 229°
2026-05-07 13:38 50.15636 9.06523 5883 ft 267 kts 234°
2026-05-07 13:38 50.14673 9.04054 5761 ft 265 kts 246°
2026-05-07 13:39 50.14031 9.01357 5629 ft 264 kts 254°
2026-05-07 13:39 50.13514 8.98741 5511 ft 264 kts 254°
2026-05-07 13:39 50.12946 8.96020 5382 ft 264 kts 252°
2026-05-07 13:39 50.12339 8.93327 5096 ft 263 kts 252°
2026-05-07 13:40 50.11707 8.90657 4736 ft 261 kts 251°
2026-05-07 13:40 50.11067 8.88010 4373 ft 260 kts 251°
2026-05-07 13:40 50.10640 8.86253 4141 ft 259 kts 251°
2026-05-07 13:40 50.10289 8.84811 3945 ft 259 kts 250°
2026-05-07 13:41 50.09658 8.82222 3602 ft 258 kts 251°
2026-05-07 13:41 50.09022 8.79597 3241 ft 256 kts 251°
2026-05-07 13:41 50.08778 8.78586 3028 ft 254 kts 251°
2026-05-07 13:41 50.08474 8.77324 2851 ft 249 kts 251°
2026-05-07 13:42 50.07881 8.74860 2553 ft 230 kts 251°
2026-05-07 13:42 50.07339 8.72608 2278 ft 213 kts 251°
2026-05-07 13:42 50.07002 8.71199 2121 ft 201 kts 251°
2026-05-07 13:42 50.06750 8.70146 1990 ft 192 kts 251°
2026-05-07 13:43 50.06401 8.68689 1781 ft 179 kts 251°
2026-05-07 13:43 50.05986 8.66954 1513 ft 164 kts 251°
2026-05-07 13:43 50.05678 8.65667 1347 ft 153 kts 251°
2026-05-07 13:43 50.05333 8.64215 1174 ft 151 kts 250°
2026-05-07 13:44 50.04999 8.62814 985 ft 149 kts 250°
2026-05-07 13:44 50.04681 8.61476 794 ft 146 kts 249°
2026-05-07 13:44 50.04418 8.60371 629 ft 144 kts 248°
2026-05-07 13:44 50.04202 8.59461 483 ft 142 kts 249°
2026-05-07 13:45 50.03861 8.58031 364 ft 134 kts 247°
2026-05-07 13:45 50.03577 8.56863 362 ft 89 kts 250°
2026-05-07 13:45 50.03422 8.56214 358 ft 33 kts 249°
2026-05-07 13:45 50.03402 8.56130 363 ft 22 kts 249°
2026-05-07 13:46 50.03350 8.55913 358 ft 25 kts 249°
2026-05-07 13:46 50.03296 8.55644 360 ft 26 kts 254°
2026-05-07 13:46 50.03311 8.55463 359 ft 20 kts 285°
2026-05-07 13:46 50.03336 8.55295 357 ft 9 kts 281°
2026-05-07 13:47 50.03347 8.55219 356 ft 8 kts 287°
2026-05-07 13:47 50.03379 8.55159 361 ft 9 kts 342°
2026-05-07 13:47 50.03418 8.55172 363 ft 11 kts 40°
2026-05-07 13:47 50.03452 8.55294 360 ft 14 kts 71°
2026-05-07 13:48 50.03485 8.55441 358 ft 13 kts 68°
2026-05-07 13:48 50.03519 8.55497 360 ft 10 kts 25°
2026-05-07 13:48 50.03559 8.55514 360 ft 0 kts 10°
2026-05-07 13:48 50.03560 8.55514 360 ft 0 kts 10°
2026-05-07 13:51 50.03562 8.55515 360 ft 1 kts 10°
2026-05-07 13:51 50.03581 8.55520 357 ft 5 kts 10°
2026-05-07 13:51 50.03625 8.55532 359 ft 8 kts
2026-05-07 13:51 50.03678 8.55544 360 ft 5 kts
2026-05-07 13:52 50.03724 8.55552 357 ft 8 kts
2026-05-07 13:52 50.03794 8.55540 359 ft 12 kts 344°
2026-05-07 13:52 50.03864 8.55504 357 ft 6 kts 340°
2026-05-07 13:52 50.03917 8.55485 359 ft 8 kts
2026-05-07 13:53 50.03943 8.55507 358 ft 4 kts 52°
2026-05-07 13:53 50.03950 8.55538 360 ft 6 kts 73°
2026-05-07 13:54 50.03969 8.55618 360 ft 10 kts 68°
2026-05-07 13:54 50.03998 8.55733 363 ft 13 kts 69°
2026-05-07 13:54 50.04033 8.55874 361 ft 14 kts 69°
2026-05-07 13:54 50.04071 8.56036 362 ft 18 kts 70°
2026-05-07 13:55 50.04117 8.56233 360 ft 18 kts 70°
2026-05-07 13:55 50.04149 8.56368 361 ft 12 kts 70°
2026-05-07 13:55 50.04183 8.56510 362 ft 15 kts 69°
2026-05-07 13:55 50.04219 8.56661 362 ft 15 kts 70°
2026-05-07 13:56 50.04257 8.56801 361 ft 4 kts 40°
2026-05-07 13:56 50.04290 8.56812 358 ft 7 kts
2026-05-07 13:56 50.04347 8.56828 356 ft 10 kts 12°
2026-05-07 13:56 50.04418 8.56850 358 ft 8 kts 11°
2026-05-07 13:57 50.04489 8.56871 354 ft 12 kts 10°
2026-05-07 13:57 50.04575 8.56897 361 ft 10 kts 13°
2026-05-07 13:57 50.04605 8.56909 361 ft 1 kts 14°
2026-05-07 13:57 50.04618 8.56911 359 ft 3 kts 351°
2026-05-07 13:58 50.04632 8.56893 358 ft 3 kts 297°
2026-05-07 13:58 50.04639 8.56867 361 ft 4 kts 294°
2026-05-07 13:58 50.04645 8.56846 359 ft 1 kts 295°
2026-05-07 13:58 50.04647 8.56839 363 ft 0 kts 295°